Wind_Speed
11 11 12 12 12 12 12 9 6 5 3 2 0 2 3 4 4 4 4 3 3 4 6 7 7 8 9 10 11 11 11 11 12 12 12 11 11 10 9 8 8 7 7
7 11 12 13 13 12 12 10 8 7 4 3 3 2 2 2 2 2 0 1 2 2 4 5 5 6 6 7 8 9 9 9 10 10 11 11 11 11 11 10 10 10 10
17 14 14 15 14 14 13 11 9 8 6 4 2 2 2 2 2 2 2 3 3 3 4 5 7 7 7 8 9 9 9 10 11 11 12 13 12 10 11 11 11 11 11
18 19 18 17 16 15 14 13 11 10 8 7 6 7 6 7 7 7 6 6 7 7 7 9 9 10 11 11 12 12 13 13 13 14 15 15 15 15 13 12 12 14 14
20 20 18 20 18 15 14 13 12 11 10 9 9 10 12 13 12 10 9 9 9 11 12 12 13 13 13 13 14 14 15 15 15 16 17 17 17 16 15 14 14 13 14
19 21 18 19 18 16 15 13 13 12 11 10 11 13 14 12 11 10 11 12 12 13 14 16 15 16 16 16 16 17 17 18 18 18 17 17 18 18 18 17 15 14 14
14 19 18 17 16 16 15 14 13 15 14 12 12 12 12 12 14 14 15 16 15 15 15 16 17 17 18 19 20 21 22 22 22 22 22 21 20 20 19 18 18 17 16
8 14 16 16 16 16 16 14 14 15 14 12 10 11 15 17 17 17 17 17 16 17 17 19 19 19 20 21 22 22 23 23 24 25 23 23 23 21 21 21 20 19 17
10 12 14 16 17 16 15 14 15 16 16 13 14 14 15 16 17 17 18 19 19 19 20 19 20 19 19 20 21 21 20 20 20 22 25 24 23 22 21 22 21 19 17
12 16 16 19 18 20 21 20 18 20 17 17 17 17 16 17 16 16 16 17 19 20 19 18 17 16 17 17 18 19 20 18 18 21 22 22 22 21 20 21 20 19 18
17 19 22 24 22 24 26 21 20 22 21 19 21 19 19 18 17 18 21 21 20 19 18 18 16 17 16 17 18 19 21 18 18 19 20 20 20 20 17 16 18 19 19
22 18 23 28 27 30 35 26 23 24 25 21 24 24 22 21 19 18 18 20 17 17 17 16 15 16 15 16 19 21 25 15 14 21 19 17 18 17 17 19 19 19 20
21 19 21 28 31 33 32 26 27 26 26 27 27 27 24 23 17 17 17 17 16 17 15 14 15 14 16 17 19 24 22 20 12 20 22 14 19 17 18 21 22 21 21
20 19 18 22 31 35 35 34 34 32 23 22 26 28 24 22 18 19 17 16 17 18 14 13 14 15 16 16 19 19 21 21 20 22 18 21 19 22 22 22 21 21 22
22 20 20 22 25 30 32 35 36 34 23 26 26 26 27 25 24 24 20 19 15 14 13 14 16 16 17 17 17 20 19 22 24 18 18 15 16 19 23 23 23 24 24
23 24 24 23 26 28 31 33 34 31 30 32 31 29 26 28 26 25 21 18 18 15 14 15 16 18 18 17 17 18 18 21 22 19 20 16 22 21 22 23 23 24 25
27 25 26 26 26 28 31 33 34 34 36 35 33 32 31 30 29 25 20 17 18 16 17 17 18 18 18 18 18 18 20 22 21 24 21 21 22 23 22 22 23 25 24
31 27 27 28 29 31 32 33 33 34 35 35 33 32 31 29 32 26 22 18 19 18 17 19 18 20 20 19 21 21 23 24 20 19 23 21 15 20 23 23 23 24 24
26 27 29 31 31 31 34 35 36 34 34 34 35 32 31 33 34 29 25 23 20 22 19 19 20 21 23 23 24 26 27 24 26 21 15 23 20 18 20 24 25 26 24
30 31 31 33 35 35 36 36 37 38 36 34 35 35 31 32 33 31 29 27 24 24 23 21 22 23 22 24 24 27 28 30 25 29 29 24 22 22 21 23 25 25 25
40 37 37 37 39 39 39 35 36 36 38 37 35 36 35 34 34 32 31 31 30 28 27 26 25 26 25 25 26 27 29 29 29 23 15 24 19 19 20 22 24 24 25
40 40 35 36 36 34 36 34 34 34 35 35 36 37 38 37 35 35 35 34 33 34 31 29 30 29 28 28 27 28 30 29 25 26 24 20 20 19 19 20 23 24 24
40 39 36 30 31 31 32 35 35 35 35 36 36 38 38 39 38 38 38 40 37 36 37 33 34 33 32 29 29 29 29 30 29 25 28 24 22 19 20 20 21 22 23
39 36 34 33 31 33 34 34 35 33 34 31 36 40 40 38 39 39 41 42 43 41 40 38 35 36 34 33 31 31 30 29 28 26 24 26 21 19 19 20 20 22 23
38 36 35 34 34 34 32 35 32 33 33 32 34 37 43 42 38 40 41 42 43 43 39 39 36 36 35 35 34 33 30 29 29 29 27 23 24 20 20 18 22 21 21
39 38 37 38 37 37 37 35 37 36 35 34 34 39 41 42 40 39 44 44 42 39 38 36 38 36 36 34 33 34 30 30 29 29 30 29 24 23 21 16 21 21 20
Wind_Direction
197 198 204 198 186 185 183 185 199 221 243 265 140 96 97 98 86 78 61 54 32 22 27 28 22 29 26 26 28 22 17 7 360 354 348 346 344 342 338 333 328 320 314
210 219 206 207 195 194 193 190 214 221 224 195 177 182 161 143 132 126 115 354 351 354 353 352 350 3 5 6 10 15 19 13 3 359 351 343 344 338 336 334 328 321 312
231 234 222 207 194 196 209 207 206 219 218 230 247 256 258 265 250 250 261 288 298 307 319 322 328 329 330 334 340 340 346 345 339 339 337 343 340 335 332 328 325 318 311
243 226 223 213 196 200 206 213 213 221 230 244 269 283 298 302 286 275 272 292 314 324 329 328 325 324 325 324 321 320 324 324 323 325 326 323 325 330 329 327 325 321 318
242 220 211 209 202 201 211 222 225 228 239 257 272 288 300 305 288 282 293 302 311 320 321 319 319 319 319 321 321 318 317 315 317 319 320 323 324 324 324 325 323 324 321
223 208 203 206 206 210 215 227 238 245 253 266 281 295 305 297 289 293 297 299 309 310 312 314 318 320 321 321 319 319 321 321 321 317 317 318 319 320 324 327 326 318 313
196 201 192 203 215 222 221 233 248 264 267 271 293 304 300 298 297 300 302 306 308 309 312 313 312 312 315 318 320 323 322 320 319 318 318 317 317 319 321 323 324 322 319
211 204 198 204 220 227 235 239 252 261 270 281 296 302 299 299 300 301 303 304 306 309 310 309 310 312 315 319 322 321 320 317 316 317 316 316 316 316 318 320 321 320 318
255 225 224 223 223 233 236 246 260 274 266 276 275 291 286 294 300 305 304 303 305 310 314 314 317 317 319 319 318 315 315 317 322 321 317 316 316 317 319 320 318 317 316
242 255 239 236 241 236 244 252 263 263 263 267 270 291 296 292 298 302 313 310 302 306 311 312 320 321 325 326 314 311 309 313 323 324 317 323 326 317 319 322 320 313 312
265 244 252 247 242 244 242 246 259 256 266 270 281 286 302 297 301 299 298 304 307 305 311 313 315 319 325 321 318 317 315 318 333 338 320 326 327 325 323 324 322 318 312
268 248 242 249 244 245 245 252 246 256 262 272 283 287 297 296 305 297 302 301 305 306 309 313 316 319 326 323 322 322 342 339 335 342 321 333 331 335 337 335 329 321 319
261 255 243 248 251 255 262 263 267 263 265 274 287 291 286 293 298 301 301 300 295 300 305 309 314 319 321 323 327 323 337 339 345 334 318 343 334 332 336 332 328 323 320
263 259 249 253 255 260 265 270 267 268 280 286 292 290 287 290 297 305 297 293 302 301 299 301 305 312 315 322 320 319 322 325 336 346 339 330 326 328 329 331 327 327 325
272 270 258 261 260 262 266 267 271 283 289 287 295 293 289 289 293 300 300 286 272 265 285 294 297 304 313 320 321 319 319 320 323 334 322 313 317 324 325 329 329 327 325
272 273 267 264 264 264 266 268 277 281 283 287 288 286 286 288 291 291 291 284 284 288 288 285 295 305 313 314 317 318 313 315 314 320 321 313 333 328 329 334 331 329 330
272 267 271 271 271 272 273 275 278 281 282 285 287 286 284 287 287 284 280 275 277 277 281 288 297 301 306 310 314 315 310 310 311 314 318 319 327 325 332 333 331 332 332
273 268 267 268 270 275 277 277 278 279 281 283 284 285 288 282 289 284 277 269 271 271 274 284 291 296 300 307 310 314 316 306 306 309 313 313 310 331 326 331 333 334 335
265 264 264 269 270 271 272 276 279 280 280 281 283 282 282 283 286 285 283 273 270 274 277 280 286 291 298 305 311 314 312 303 301 311 285 308 329 328 327 331 335 336 338
269 266 263 266 269 272 272 273 276 280 280 279 281 283 280 280 282 284 282 276 274 274 275 280 286 290 295 300 303 306 306 308 316 317 326 312 316 326 331 331 333 336 339
269 268 264 262 265 266 267 270 272 272 274 279 281 280 279 280 282 283 281 280 280 277 276 279 284 289 291 294 299 300 303 307 311 317 303 299 310 319 330 326 331 337 338
267 267 263 263 264 265 268 269 268 268 270 270 273 275 278 277 278 280 281 280 280 278 275 277 279 283 287 291 294 296 300 300 299 304 304 311 313 322 321 323 331 334 338
263 265 268 268 262 262 264 267 269 271 271 272 270 270 272 275 276 276 277 279 278 278 279 277 280 281 283 286 289 293 294 299 301 306 302 302 308 312 311 319 327 330 336
255 258 259 260 261 263 263 265 267 268 272 275 277 276 275 275 274 274 276 275 277 277 278 278 280 282 284 285 287 288 290 294 294 293 291 297 296 302 304 310 319 326 337
250 254 258 261 265 269 269 270 261 261 263 265 272 277 278 274 277 277 274 274 271 271 271 275 276 278 280 282 284 286 290 288 289 289 290 283 288 293 297 308 313 321 331
254 255 257 261 265 266 267 263 262 262 263 266 268 273 279 279 275 275 274 269 270 272 273 272 273 274 276 278 282 286 285 284 282 284 285 287 283 282 285 287 300 313 321
Height
5925 5927 5928 5929 5930 5931 5932 5933 5934 5934 5933 5932 5932 5931 5931 5931 5930 5930 5930 5930 5930 5930 5929 5929 5928 5927 5926 5925 5924 5923 5922 5922 5921 5920 5919 5918 5917 5916 5915 5913 5912 5911 5910
5925 5927 5928 5930 5930 5932 5933 5933 5934 5934 5933 5933 5932 5931 5931 5931 5930 5930 5930 5930 5929 5929 5929 5929 5929 5927 5927 5926 5924 5924 5923 5922 5921 5920 5919 5918 5917 5915 5914 5912 5911 5910 5909
5925 5926 5927 5929 5930 5931 5933 5933 5933 5934 5933 5933 5933 5932 5932 5931 5931 5931 5930 5930 5929 5929 5929 5929 5929 5927 5927 5926 5925 5924 5923 5922 5921 5920 5918 5916 5915 5914 5913 5911 5909 5908 5907
5923 5925 5927 5928 5930 5931 5932 5932 5933 5933 5933 5933 5933 5933 5933 5932 5932 5931 5931 5931 5931 5930 5929 5929 5928 5927 5926 5925 5924 5923 5922 5921 5920 5918 5917 5916 5914 5913 5911 5910 5908 5907 5906
5920 5922 5925 5927 5929 5930 5931 5932 5933 5933 5933 5933 5933 5933 5933 5932 5932 5932 5932 5931 5930 5930 5929 5928 5927 5926 5925 5924 5923 5922 5921 5920 5918 5917 5916 5914 5912 5910 5909 5908 5906 5905 5904
5917 5920 5923 5925 5928 5929 5930 5931 5933 5933 5933 5933 5933 5933 5932 5932 5932 5931 5931 5930 5929 5928 5928 5927 5925 5925 5924 5923 5922 5921 5919 5918 5916 5915 5913 5912 5910 5908 5906 5905 5903 5902 5901
5918 5920 5922 5925 5927 5928 5929 5930 5931 5932 5932 5933 5932 5932 5931 5931 5930 5929 5928 5928 5927 5926 5925 5925 5923 5923 5922 5921 5920 5919 5918 5916 5914 5913 5911 5909 5907 5905 5904 5902 5901 5899 5898
5921 5922 5922 5924 5926 5927 5928 5928 5930 5931 5931 5931 5931 5930 5930 5929 5928 5927 5926 5925 5924 5924 5923 5923 5922 5921 5920 5919 5918 5917 5915 5913 5913 5911 5908 5906 5904 5902 5901 5900 5898 5897 5895
5922 5922 5922 5923 5924 5925 5926 5927 5928 5928 5929 5929 5929 5929 5928 5927 5926 5925 5924 5923 5922 5921 5921 5920 5919 5918 5918 5918 5916 5912 5909 5908 5908 5908 5906 5904 5901 5899 5898 5896 5894 5893 5892
5920 5920 5921 5921 5922 5923 5923 5925 5925 5926 5926 5927 5927 5927 5927 5926 5925 5924 5922 5921 5920 5919 5919 5918 5917 5917 5916 5914 5910 5907 5906 5905 5906 5904 5904 5902 5899 5896 5894 5893 5891 5890 5889
5916 5917 5918 5919 5919 5920 5920 5920 5921 5922 5924 5925 5925 5925 5925 5924 5923 5921 5920 5919 5917 5917 5917 5916 5916 5915 5914 5911 5907 5907 5905 5905 5905 5901 5898 5898 5896 5894 5891 5890 5888 5887 5886
5910 5912 5914 5915 5915 5916 5915 5915 5918 5919 5921 5921 5921 5922 5922 5921 5920 5919 5918 5916 5915 5915 5915 5914 5914 5914 5912 5909 5905 5905 5903 5905 5900 5898 5898 5895 5894 5892 5890 5888 5886 5884 5882
5905 5907 5909 5912 5912 5912 5913 5913 5915 5916 5917 5917 5918 5918 5918 5918 5918 5917 5916 5915 5914 5913 5912 5912 5912 5912 5912 5908 5904 5902 5902 5905 5899 5900 5896 5892 5893 5891 5888 5886 5884 5881 5879
5901 5902 5905 5907 5908 5909 5911 5910 5912 5913 5912 5913 5913 5913 5913 5914 5913 5914 5914 5913 5910 5909 5910 5910 5911 5910 5911 5908 5904 5902 5899 5898 5895 5893 5892 5891 5889 5890 5887 5884 5882 5879 5877
5894 5899 5900 5902 5903 5904 5905 5906 5906 5909 5907 5909 5909 5908 5908 5909 5909 5909 5909 5909 5909 5910 5907 5908 5909 5909 5909 5907 5904 5900 5897 5894 5890 5891 5892 5889 5890 5885 5884 5882 5879 5876 5873
5893 5895 5896 5898 5899 5900 5900 5902 5902 5903 5904 5904 5904 5904 5904 5905 5905 5905 5905 5905 5905 5904 5904 5906 5906 5905 5906 5905 5903 5901 5897 5895 5892 5893 5890 5887 5886 5883 5881 5878 5876 5874 5870
5890 5892 5892 5894 5896 5896 5897 5898 5898 5898 5899 5899 5899 5900 5900 5901 5901 5901 5901 5902 5902 5903 5903 5903 5903 5903 5902 5902 5900 5898 5896 5896 5894 5890 5889 5885 5883 5881 5878 5876 5874 5871 5867
5884 5886 5888 5889 5891 5891 5892 5892 5893 5893 5893 5893 5895 5895 5896 5895 5895 5896 5897 5898 5898 5899 5900 5900 5900 5899 5898 5898 5896 5894 5893 5890 5888 5887 5885 5883 5879 5877 5876 5874 5871 5868 5865
5882 5882 5882 5882 5884 5886 5886 5887 5886 5887 5888 5888 5888 5890 5891 5890 5890 5892 5892 5893 5894 5893 5895 5896 5896 5896 5895 5893 5891 5889 5885 5886 5888 5883 5876 5879 5873 5876 5876 5870 5868 5865 5862
5878 5876 5876 5878 5878 5880 5880 5881 5881 5880 5882 5883 5882 5883 5886 5886 5885 5886 5887 5887 5889 5889 5890 5891 5891 5891 5891 5890 5889 5887 5884 5881 5886 5881 5870 5879 5876 5873 5871 5869 5866 5863 5859
5868 5869 5871 5873 5873 5873 5874 5875 5874 5875 5875 5876 5877 5877 5878 5879 5880 5880 5880 5882 5883 5883 5884 5885 5886 5886 5886 5886 5885 5884 5880 5878 5878 5878 5878 5879 5874 5871 5868 5866 5864 5860 5856
5861 5861 5864 5865 5866 5866 5866 5868 5868 5868 5868 5869 5870 5870 5871 5873 5874 5874 5874 5876 5877 5876 5878 5879 5880 5881 5881 5880 5879 5878 5877 5876 5878 5876 5876 5870 5868 5866 5864 5864 5861 5857 5854
5855 5855 5856 5858 5859 5860 5859 5860 5861 5861 5862 5862 5863 5863 5865 5866 5867 5868 5869 5868 5871 5870 5871 5873 5873 5874 5874 5874 5873 5873 5872 5870 5869 5869 5865 5866 5863 5863 5862 5861 5859 5856 5852
5848 5849 5850 5851 5852 5851 5854 5856 5855 5855 5855 5855 5854 5855 5857 5859 5860 5862 5862 5862 5862 5863 5863 5865 5866 5866 5867 5867 5867 5866 5866 5866 5864 5865 5863 5860 5861 5860 5859 5858 5856 5852 5849
5840 5842 5843 5843 5844 5845 5846 5846 5847 5847 5848 5849 5848 5847 5847 5851 5854 5854 5854 5854 5853 5853 5856 5854 5857 5856 5859 5859 5858 5858 5859 5858 5857 5857 5857 5860 5856 5856 5856 5853 5851 5849 5846
5832 5834 5834 5835 5836 5837 5838 5839 5840 5841 5841 5842 5842 5842 5842 5842 5845 5846 5843 5840 5844 5847 5847 5848 5848 5850 5850 5850 5849 5851 5851 5851 5851 5851 5851 5852 5853 5852 5852 5850 5847 5845 5843